Location: Im Fang
(46.6019°N, 7.2397°E)
Time: 11:25:58
(UTC+00:00)

Cosmos 1943 - Pass Details

Date: 08 December 2019
Orbit: 835 x 848 km, 71.0° (Epoch: 19 January)

Event Time Altitude Azimuth Distance (km) Brightness Sun altitude
Exits shadow 04:29:54 23° 352° (N) 1,735 4.7 -25.1°
Maximum altitude 04:33:14 48° 57° (ENE) 1,081 4.0 -24.6°
Drops below altitude 10° 04:38:39 10° 131° (SE) 2,444 6.4 -23.7°
Sets 04:41:10 0° 137° (SE) 3,375 7.1 -23.2°
